Year,Month,Day,Hour,Minute,Value (Times are PST for temperature in C)
2021,04,01,00,00,3.00
2021,04,01,00,01,3.00
2021,04,01,00,02,3.00
2021,04,01,00,03,3.00
2021,04,01,00,04,3.00
2021,04,01,00,05,2.90
2021,04,01,00,06,2.90
2021,04,01,00,07,2.90
2021,04,01,00,08,2.90
2021,04,01,00,09,2.90
2021,04,01,00,10,2.90
2021,04,01,00,11,2.90
2021,04,01,00,12,2.90
2021,04,01,00,13,2.90
2021,04,01,00,14,2.90
2021,04,01,00,15,2.90
2021,04,01,00,16,2.80
2021,04,01,00,17,2.80
2021,04,01,00,18,2.80
2021,04,01,00,19,2.80
2021,04,01,00,20,2.80
2021,04,01,00,21,2.80
2021,04,01,00,22,2.80
2021,04,01,00,23,2.80
2021,04,01,00,24,2.80
2021,04,01,00,25,2.80
2021,04,01,00,26,2.80
2021,04,01,00,27,2.80
2021,04,01,00,28,2.80
2021,04,01,00,29,2.80
2021,04,01,00,30,2.70
2021,04,01,00,31,2.70
2021,04,01,00,32,2.70
2021,04,01,00,33,2.70
2021,04,01,00,34,2.70
2021,04,01,00,35,2.70
2021,04,01,00,36,2.70
2021,04,01,00,37,2.70
2021,04,01,00,38,2.70
2021,04,01,00,39,2.60
2021,04,01,00,40,2.60
2021,04,01,00,41,2.60
2021,04,01,00,42,2.60
2021,04,01,00,43,2.60
2021,04,01,00,44,2.60
2021,04,01,00,45,2.60
2021,04,01,00,46,2.50
2021,04,01,00,47,2.50
2021,04,01,00,48,2.50
2021,04,01,00,49,2.50
2021,04,01,00,50,2.40
2021,04,01,00,51,2.40
2021,04,01,00,52,2.40
2021,04,01,00,53,2.40
2021,04,01,00,54,2.40
2021,04,01,00,55,2.40
2021,04,01,00,56,2.40
2021,04,01,00,57,2.40
2021,04,01,00,58,2.40
2021,04,01,00,59,2.40
2021,04,01,01,00,2.40
2021,04,01,01,01,2.40
2021,04,01,01,02,2.40
2021,04,01,01,03,2.40
2021,04,01,01,04,2.40
2021,04,01,01,05,2.40
2021,04,01,01,06,2.40
2021,04,01,01,07,2.30
2021,04,01,01,08,2.30
2021,04,01,01,09,2.30
2021,04,01,01,10,2.30
2021,04,01,01,11,2.30
2021,04,01,01,12,2.30
2021,04,01,01,13,2.30
2021,04,01,01,14,2.30
2021,04,01,01,15,2.30
2021,04,01,01,16,2.30
2021,04,01,01,17,2.30
2021,04,01,01,18,2.30
2021,04,01,01,19,2.30
2021,04,01,01,20,2.30
2021,04,01,01,21,2.30
2021,04,01,01,22,2.30
2021,04,01,01,23,2.30
2021,04,01,01,24,2.30
2021,04,01,01,25,2.30
2021,04,01,01,26,2.30
2021,04,01,01,27,2.30
2021,04,01,01,28,2.30
2021,04,01,01,29,2.30
2021,04,01,01,30,2.30
2021,04,01,01,31,2.30
2021,04,01,01,32,2.30
2021,04,01,01,33,2.30
2021,04,01,01,34,2.20
2021,04,01,01,35,2.20
2021,04,01,01,36,2.20
2021,04,01,01,37,2.20
2021,04,01,01,38,2.20
2021,04,01,01,39,2.10
2021,04,01,01,40,2.10
2021,04,01,01,41,2.10
2021,04,01,01,42,2.10
2021,04,01,01,43,2.10
2021,04,01,01,44,2.20
2021,04,01,01,45,2.10
2021,04,01,01,46,2.20
2021,04,01,01,47,2.10
2021,04,01,01,48,2.10
2021,04,01,01,49,2.10
2021,04,01,01,50,2.20
2021,04,01,01,51,2.20
2021,04,01,01,52,2.20
2021,04,01,01,53,2.20
2021,04,01,01,54,2.20
2021,04,01,01,55,2.20
2021,04,01,01,56,2.30
2021,04,01,01,57,2.30
2021,04,01,01,58,2.30
2021,04,01,01,59,2.30
2021,04,01,02,00,2.30
2021,04,01,02,01,2.30
2021,04,01,02,02,2.30
2021,04,01,02,03,2.30
2021,04,01,02,04,2.30
2021,04,01,02,05,2.30
2021,04,01,02,06,2.30
2021,04,01,02,07,2.20
2021,04,01,02,08,2.20
2021,04,01,02,09,2.20
2021,04,01,02,10,2.20
2021,04,01,02,11,2.20
2021,04,01,02,12,2.20
2021,04,01,02,13,2.20
2021,04,01,02,14,2.20
2021,04,01,02,15,2.20
2021,04,01,02,16,2.20
2021,04,01,02,17,2.20
2021,04,01,02,18,2.20
2021,04,01,02,19,2.20
2021,04,01,02,20,2.20
2021,04,01,02,21,2.20
2021,04,01,02,22,2.20
2021,04,01,02,23,2.20
2021,04,01,02,24,2.20
2021,04,01,02,25,2.20
2021,04,01,02,26,2.10
2021,04,01,02,27,2.10
2021,04,01,02,28,2.10
2021,04,01,02,29,2.10
2021,04,01,02,30,2.10
2021,04,01,02,31,2.10
2021,04,01,02,32,2.10
2021,04,01,02,33,2.10
2021,04,01,02,34,2.10
2021,04,01,02,35,2.10
2021,04,01,02,36,2.10
2021,04,01,02,37,2.10
2021,04,01,02,38,2.20
2021,04,01,02,39,2.20
2021,04,01,02,40,2.20
2021,04,01,02,41,2.20
2021,04,01,02,42,2.20
2021,04,01,02,43,2.20
2021,04,01,02,44,2.20
2021,04,01,02,45,2.20
2021,04,01,02,46,2.20
2021,04,01,02,47,2.20
2021,04,01,02,48,2.20
2021,04,01,02,49,2.20
2021,04,01,02,50,2.20
2021,04,01,02,51,2.20
2021,04,01,02,52,2.20
2021,04,01,02,53,2.20
2021,04,01,02,54,2.20
2021,04,01,02,55,2.20
2021,04,01,02,56,2.20
2021,04,01,02,57,2.20
2021,04,01,02,58,2.20
2021,04,01,02,59,2.20
2021,04,01,03,00,2.20
2021,04,01,03,01,2.20
2021,04,01,03,02,2.20
2021,04,01,03,03,2.20
2021,04,01,03,04,2.20
2021,04,01,03,05,2.20
2021,04,01,03,06,2.20
2021,04,01,03,07,2.20
2021,04,01,03,08,2.20
2021,04,01,03,09,2.10
2021,04,01,03,10,2.10
2021,04,01,03,11,2.10
2021,04,01,03,12,2.10
2021,04,01,03,13,2.10
2021,04,01,03,14,2.10
2021,04,01,03,15,2.10
2021,04,01,03,16,2.10
2021,04,01,03,17,2.10
2021,04,01,03,18,2.10
2021,04,01,03,19,2.10
2021,04,01,03,20,2.10
2021,04,01,03,21,2.10
2021,04,01,03,22,2.10
2021,04,01,03,23,2.10
2021,04,01,03,24,2.10
2021,04,01,03,25,2.00
2021,04,01,03,26,2.00
2021,04,01,03,27,2.00
2021,04,01,03,28,2.00
2021,04,01,03,29,1.90
2021,04,01,03,30,1.90
2021,04,01,03,31,1.90
2021,04,01,03,32,1.80
2021,04,01,03,33,1.80
2021,04,01,03,34,1.80
2021,04,01,03,35,1.80
2021,04,01,03,36,1.80
2021,04,01,03,37,1.80
2021,04,01,03,38,1.80
2021,04,01,03,39,1.80
2021,04,01,03,40,1.80
2021,04,01,03,41,1.80
2021,04,01,03,42,1.80
2021,04,01,03,43,1.80
2021,04,01,03,44,1.80
2021,04,01,03,45,1.90
2021,04,01,03,46,1.90
2021,04,01,03,47,1.90
2021,04,01,03,48,1.90
2021,04,01,03,49,1.90
2021,04,01,03,50,1.90
2021,04,01,03,51,1.90
2021,04,01,03,52,1.90
2021,04,01,03,53,1.90
2021,04,01,03,54,1.90
2021,04,01,03,55,1.90
2021,04,01,03,56,1.90
2021,04,01,03,57,1.90
2021,04,01,03,58,1.90
2021,04,01,03,59,2.00
2021,04,01,04,00,2.00
2021,04,01,04,01,2.00
2021,04,01,04,02,2.10
2021,04,01,04,03,2.10
2021,04,01,04,04,2.10
2021,04,01,04,05,2.10
2021,04,01,04,06,2.20
2021,04,01,04,07,2.20
2021,04,01,04,08,2.30
2021,04,01,04,09,2.30
2021,04,01,04,10,2.40
2021,04,01,04,11,2.40
2021,04,01,04,12,2.40
2021,04,01,04,13,2.50
2021,04,01,04,14,2.60
2021,04,01,04,15,2.60
2021,04,01,04,16,2.60
2021,04,01,04,17,2.70
2021,04,01,04,18,2.70
2021,04,01,04,19,2.80
2021,04,01,04,20,2.80
2021,04,01,04,21,2.80
2021,04,01,04,22,2.80
2021,04,01,04,23,2.90
2021,04,01,04,24,2.90
2021,04,01,04,25,2.90
2021,04,01,04,26,3.00
2021,04,01,04,27,3.00
2021,04,01,04,28,3.00
2021,04,01,04,29,3.10
2021,04,01,04,30,3.10
2021,04,01,04,31,3.00
2021,04,01,04,32,3.00
2021,04,01,04,33,2.90
2021,04,01,04,34,2.80
2021,04,01,04,35,2.80
2021,04,01,04,36,2.70
2021,04,01,04,37,2.60
2021,04,01,04,38,2.60
2021,04,01,04,39,2.50
2021,04,01,04,40,2.50
2021,04,01,04,41,2.50
2021,04,01,04,42,2.50
2021,04,01,04,43,2.50
2021,04,01,04,44,2.50
2021,04,01,04,45,2.50
2021,04,01,04,46,2.50
2021,04,01,04,47,2.60
2021,04,01,04,48,2.60
2021,04,01,04,49,2.60
2021,04,01,04,50,2.70
2021,04,01,04,51,2.70
2021,04,01,04,52,2.70
2021,04,01,04,53,2.80
2021,04,01,04,54,2.80
2021,04,01,04,55,2.80
2021,04,01,04,56,2.80
2021,04,01,04,57,2.80
2021,04,01,04,58,2.80
2021,04,01,04,59,2.90
2021,04,01,05,00,2.90
2021,04,01,05,01,2.90
2021,04,01,05,02,2.90
2021,04,01,05,03,2.90
2021,04,01,05,04,2.90
2021,04,01,05,05,2.90
2021,04,01,05,06,2.90
2021,04,01,05,07,2.90
2021,04,01,05,08,3.00
2021,04,01,05,09,3.00
2021,04,01,05,10,3.00
2021,04,01,05,11,3.00
2021,04,01,05,12,2.90
2021,04,01,05,13,2.90
2021,04,01,05,14,3.00
2021,04,01,05,15,3.00
2021,04,01,05,16,3.00
2021,04,01,05,17,3.10
2021,04,01,05,18,3.10
2021,04,01,05,19,3.10
2021,04,01,05,20,3.10
2021,04,01,05,21,3.10
2021,04,01,05,22,3.10
2021,04,01,05,23,3.10
2021,04,01,05,24,3.10
2021,04,01,05,25,3.10
2021,04,01,05,26,3.00
2021,04,01,05,27,3.00
2021,04,01,05,28,2.90
2021,04,01,05,29,2.90
2021,04,01,05,30,2.90
2021,04,01,05,31,2.90
2021,04,01,05,32,2.80
2021,04,01,05,33,2.80
2021,04,01,05,34,2.80
2021,04,01,05,35,2.80
2021,04,01,05,36,2.80
2021,04,01,05,37,2.80
2021,04,01,05,38,2.90
2021,04,01,05,39,2.90
2021,04,01,05,40,2.90
2021,04,01,05,41,2.90
2021,04,01,05,42,2.90
2021,04,01,05,43,2.90
2021,04,01,05,44,3.00
2021,04,01,05,45,3.10
2021,04,01,05,46,3.20
2021,04,01,05,47,3.20
2021,04,01,05,48,3.40
2021,04,01,05,49,3.60
2021,04,01,05,50,3.70
2021,04,01,05,51,4.00
2021,04,01,05,52,4.10
2021,04,01,05,53,4.10
2021,04,01,05,54,4.30
2021,04,01,05,55,4.40
2021,04,01,05,56,4.50
2021,04,01,05,57,4.70
2021,04,01,05,58,4.80
2021,04,01,05,59,4.90
2021,04,01,06,00,4.90
2021,04,01,06,01,5.00
2021,04,01,06,02,5.10
2021,04,01,06,03,5.20
2021,04,01,06,04,5.30
2021,04,01,06,05,5.40
2021,04,01,06,06,5.40
2021,04,01,06,07,5.50
2021,04,01,06,08,5.50
2021,04,01,06,09,5.60
2021,04,01,06,10,5.60
2021,04,01,06,11,5.70
2021,04,01,06,12,5.70
2021,04,01,06,13,5.80
2021,04,01,06,14,5.80
2021,04,01,06,15,5.80
2021,04,01,06,16,5.90
2021,04,01,06,17,5.90
2021,04,01,06,18,6.00
2021,04,01,06,19,6.10
2021,04,01,06,20,6.10
2021,04,01,06,21,6.10
2021,04,01,06,22,6.10
2021,04,01,06,23,6.20
2021,04,01,06,24,6.20
2021,04,01,06,25,6.20
2021,04,01,06,26,6.20
2021,04,01,06,27,6.20
2021,04,01,06,28,6.20
2021,04,01,06,29,6.30
2021,04,01,06,30,6.30
2021,04,01,06,31,6.30
2021,04,01,06,32,6.30
2021,04,01,06,33,6.30
2021,04,01,06,34,6.30
2021,04,01,06,35,6.40
2021,04,01,06,36,6.40
2021,04,01,06,37,6.40
2021,04,01,06,38,6.40
2021,04,01,06,39,6.40
2021,04,01,06,40,6.40
2021,04,01,06,41,6.40
2021,04,01,06,42,6.40
2021,04,01,06,43,6.40
2021,04,01,06,44,6.40
2021,04,01,06,45,6.40
2021,04,01,06,46,6.40
2021,04,01,06,47,6.40
2021,04,01,06,48,6.40
2021,04,01,06,49,6.40
2021,04,01,06,50,6.40
2021,04,01,06,51,6.40
2021,04,01,06,52,6.40
2021,04,01,06,53,6.40
2021,04,01,06,54,6.40
2021,04,01,06,55,6.40
2021,04,01,06,56,6.40
2021,04,01,06,57,6.40
2021,04,01,06,58,6.30
2021,04,01,06,59,6.30
2021,04,01,07,00,6.30
2021,04,01,07,01,6.40
2021,04,01,07,02,6.40
2021,04,01,07,03,6.40
2021,04,01,07,04,6.40
2021,04,01,07,05,6.40
2021,04,01,07,06,6.40
2021,04,01,07,07,6.40
2021,04,01,07,08,6.40
2021,04,01,07,09,6.40
2021,04,01,07,10,6.40
2021,04,01,07,11,6.40
2021,04,01,07,12,6.40
2021,04,01,07,13,6.40
2021,04,01,07,14,6.40
2021,04,01,07,15,6.50
2021,04,01,07,16,6.50
2021,04,01,07,17,6.50
2021,04,01,07,18,6.50
2021,04,01,07,19,6.50
2021,04,01,07,20,6.50
2021,04,01,07,21,6.50
2021,04,01,07,22,6.50
2021,04,01,07,23,6.50
2021,04,01,07,24,6.50
2021,04,01,07,25,6.50
2021,04,01,07,26,6.50
2021,04,01,07,27,6.50
2021,04,01,07,28,6.50
2021,04,01,07,29,6.50
2021,04,01,07,30,6.40
2021,04,01,07,31,6.40
2021,04,01,07,32,6.40
2021,04,01,07,33,6.50
2021,04,01,07,34,6.50
2021,04,01,07,35,6.50
2021,04,01,07,36,6.50
2021,04,01,07,37,6.50
2021,04,01,07,38,6.40
2021,04,01,07,39,6.40
2021,04,01,07,40,6.40
2021,04,01,07,41,6.50
2021,04,01,07,42,6.50
2021,04,01,07,43,6.50
2021,04,01,07,44,6.50
2021,04,01,07,45,6.50
2021,04,01,07,46,6.50
2021,04,01,07,47,6.50
2021,04,01,07,48,6.50
2021,04,01,07,49,6.50
2021,04,01,07,50,6.50
2021,04,01,07,51,6.50
2021,04,01,07,52,6.40
2021,04,01,07,53,6.40
2021,04,01,07,54,6.50
2021,04,01,07,55,6.50
2021,04,01,07,56,6.50
2021,04,01,07,57,6.50
2021,04,01,07,58,6.50
2021,04,01,07,59,6.50
2021,04,01,08,00,6.50
2021,04,01,08,01,6.50
2021,04,01,08,02,6.50
2021,04,01,08,03,6.50
2021,04,01,08,04,6.50
2021,04,01,08,05,6.50
2021,04,01,08,06,6.50
2021,04,01,08,07,6.50
2021,04,01,08,08,6.50
2021,04,01,08,09,6.50
2021,04,01,08,10,6.50
2021,04,01,08,11,6.50
2021,04,01,08,12,6.50
2021,04,01,08,13,6.50
2021,04,01,08,14,6.50
2021,04,01,08,15,6.50
2021,04,01,08,16,6.50
2021,04,01,08,17,6.50
2021,04,01,08,18,6.50
2021,04,01,08,19,6.60
2021,04,01,08,20,6.50
2021,04,01,08,21,6.50
2021,04,01,08,22,6.60
2021,04,01,08,23,6.60
2021,04,01,08,24,6.60
2021,04,01,08,25,6.60
2021,04,01,08,26,6.60
2021,04,01,08,27,6.60
2021,04,01,08,28,6.60
2021,04,01,08,29,6.60
2021,04,01,08,30,6.60
2021,04,01,08,31,6.60
2021,04,01,08,32,6.60
2021,04,01,08,33,6.60
2021,04,01,08,34,6.60
2021,04,01,08,35,6.60
2021,04,01,08,36,6.60
2021,04,01,08,37,6.60
2021,04,01,08,38,6.60
2021,04,01,08,39,6.60
2021,04,01,08,40,6.60
2021,04,01,08,41,6.60
2021,04,01,08,42,6.60
2021,04,01,08,43,6.60
2021,04,01,08,44,6.60
2021,04,01,08,45,6.60
2021,04,01,08,46,6.60
2021,04,01,08,47,6.60
2021,04,01,08,48,6.60
2021,04,01,08,49,6.60
2021,04,01,08,50,6.60
2021,04,01,08,51,6.60
2021,04,01,08,52,6.60
2021,04,01,08,53,6.60
2021,04,01,08,54,6.60
2021,04,01,08,55,6.60
2021,04,01,08,56,6.60
2021,04,01,08,57,6.60
2021,04,01,08,58,6.60
2021,04,01,08,59,6.70
2021,04,01,09,00,6.70
2021,04,01,09,01,6.70
2021,04,01,09,02,6.70
2021,04,01,09,03,6.70
2021,04,01,09,04,6.70
2021,04,01,09,05,6.70
2021,04,01,09,06,6.70
2021,04,01,09,07,6.70
2021,04,01,09,08,6.70
2021,04,01,09,09,6.70
2021,04,01,09,10,6.70
2021,04,01,09,11,6.70
2021,04,01,09,12,6.70
2021,04,01,09,13,6.70
2021,04,01,09,14,6.70
2021,04,01,09,15,6.70
2021,04,01,09,16,6.70
2021,04,01,09,17,6.70
2021,04,01,09,18,6.80
2021,04,01,09,19,6.80
2021,04,01,09,20,6.80
2021,04,01,09,21,6.80
2021,04,01,09,22,6.80
2021,04,01,09,23,6.80
2021,04,01,09,24,6.80
2021,04,01,09,25,6.80
2021,04,01,09,26,6.80
2021,04,01,09,27,6.80
2021,04,01,09,28,6.80
2021,04,01,09,29,6.80
2021,04,01,09,30,6.80
2021,04,01,09,31,6.90
2021,04,01,09,32,6.90
2021,04,01,09,33,6.90
2021,04,01,09,34,7.00
2021,04,01,09,35,7.00
2021,04,01,09,36,7.00
2021,04,01,09,37,7.10
2021,04,01,09,38,7.10
2021,04,01,09,39,7.10
2021,04,01,09,40,7.10
2021,04,01,09,41,7.10
2021,04,01,09,42,7.10
2021,04,01,09,43,7.20
2021,04,01,09,44,7.20
2021,04,01,09,45,7.20
2021,04,01,09,46,7.20
2021,04,01,09,47,7.20
2021,04,01,09,48,7.30
2021,04,01,09,49,7.30
2021,04,01,09,50,7.30
2021,04,01,09,51,7.30
2021,04,01,09,52,7.40
2021,04,01,09,53,7.40
2021,04,01,09,54,7.40
2021,04,01,09,55,7.40
2021,04,01,09,56,7.50
2021,04,01,09,57,7.50
2021,04,01,09,58,7.50
2021,04,01,09,59,7.50
2021,04,01,10,00,7.60
2021,04,01,10,01,7.60
2021,04,01,10,02,7.60
2021,04,01,10,03,7.60
2021,04,01,10,04,7.60
2021,04,01,10,05,7.60
2021,04,01,10,06,7.70
2021,04,01,10,07,7.70
2021,04,01,10,08,7.70
2021,04,01,10,09,7.70
2021,04,01,10,10,7.70
2021,04,01,10,11,7.70
2021,04,01,10,12,7.80
2021,04,01,10,13,7.80
2021,04,01,10,14,7.80
2021,04,01,10,15,7.80
2021,04,01,10,16,7.90
2021,04,01,10,17,7.90
2021,04,01,10,18,7.90
2021,04,01,10,19,8.00
2021,04,01,10,20,8.00
2021,04,01,10,21,8.10
2021,04,01,10,22,8.20
2021,04,01,10,23,8.30
2021,04,01,10,24,8.30
2021,04,01,10,25,8.40
2021,04,01,10,26,8.40
2021,04,01,10,27,8.50
2021,04,01,10,28,8.50
2021,04,01,10,29,8.50
2021,04,01,10,30,8.40
2021,04,01,10,31,8.40
2021,04,01,10,32,8.40
2021,04,01,10,33,8.30
2021,04,01,10,34,8.30
2021,04,01,10,35,8.30
2021,04,01,10,36,8.40
2021,04,01,10,37,8.40
2021,04,01,10,38,8.40
2021,04,01,10,39,8.40
2021,04,01,10,40,8.40
2021,04,01,10,41,8.40
2021,04,01,10,42,8.40
2021,04,01,10,43,8.40
2021,04,01,10,44,8.50
2021,04,01,10,45,8.50
2021,04,01,10,46,8.60
2021,04,01,10,47,8.60
2021,04,01,10,48,8.60
2021,04,01,10,49,8.60
2021,04,01,10,50,8.60
2021,04,01,10,51,8.60
2021,04,01,10,52,8.60
2021,04,01,10,53,8.60
2021,04,01,10,54,8.70
2021,04,01,10,55,8.70
2021,04,01,10,56,8.70
2021,04,01,10,57,8.70
2021,04,01,10,58,8.60
2021,04,01,10,59,8.60
2021,04,01,11,00,8.60
2021,04,01,11,01,8.50
2021,04,01,11,02,8.50
2021,04,01,11,03,8.40
2021,04,01,11,04,8.40
2021,04,01,11,05,8.40
2021,04,01,11,06,8.40
2021,04,01,11,07,8.40
2021,04,01,11,08,8.40
2021,04,01,11,09,8.40
2021,04,01,11,10,8.40
2021,04,01,11,11,8.40
2021,04,01,11,12,8.40
2021,04,01,11,13,8.40
2021,04,01,11,14,8.40
2021,04,01,11,15,8.40
2021,04,01,11,16,8.40
2021,04,01,11,17,8.50
2021,04,01,11,18,8.50
2021,04,01,11,19,8.60
2021,04,01,11,20,8.60
2021,04,01,11,21,8.60
2021,04,01,11,22,8.70
2021,04,01,11,23,8.70
2021,04,01,11,24,8.80
2021,04,01,11,25,8.80
2021,04,01,11,26,8.90
2021,04,01,11,27,9.00
2021,04,01,11,28,9.00
2021,04,01,11,29,9.10
2021,04,01,11,30,9.20
2021,04,01,11,31,9.30
2021,04,01,11,32,9.30
2021,04,01,11,33,9.30
2021,04,01,11,34,9.40
2021,04,01,11,35,9.40
2021,04,01,11,36,9.50
2021,04,01,11,37,9.50
2021,04,01,11,38,9.50
2021,04,01,11,39,9.50
2021,04,01,11,40,9.40
2021,04,01,11,41,9.40
2021,04,01,11,42,9.30
2021,04,01,11,43,9.40
2021,04,01,11,44,9.40
2021,04,01,11,45,9.40
2021,04,01,11,46,9.40
2021,04,01,11,47,9.30
2021,04,01,11,48,9.30
2021,04,01,11,49,9.30
2021,04,01,11,50,9.30
2021,04,01,11,51,9.40
2021,04,01,11,52,9.40
2021,04,01,11,53,9.40
2021,04,01,11,54,9.50
2021,04,01,11,55,9.40
2021,04,01,11,56,9.40
2021,04,01,11,57,9.40
2021,04,01,11,58,9.40
2021,04,01,11,59,9.40
2021,04,01,12,00,9.40
2021,04,01,12,01,9.40
2021,04,01,12,02,9.30
2021,04,01,12,03,9.30
2021,04,01,12,04,9.20
2021,04,01,12,05,9.20
2021,04,01,12,06,9.20
2021,04,01,12,07,9.20
2021,04,01,12,08,9.20
2021,04,01,12,09,9.20
2021,04,01,12,10,9.20
2021,04,01,12,11,9.20
2021,04,01,12,12,9.20
2021,04,01,12,13,9.20
2021,04,01,12,14,9.20
2021,04,01,12,15,9.20
2021,04,01,12,16,9.10
2021,04,01,12,17,9.10
2021,04,01,12,18,9.10
2021,04,01,12,19,9.10
2021,04,01,12,20,9.10
2021,04,01,12,21,9.10
2021,04,01,12,22,9.10
2021,04,01,12,23,9.10
2021,04,01,12,24,9.10
2021,04,01,12,25,9.10
2021,04,01,12,26,9.10
2021,04,01,12,27,9.20
2021,04,01,12,28,9.20
2021,04,01,12,29,9.20
2021,04,01,12,30,9.20
2021,04,01,12,31,9.20
2021,04,01,12,32,9.30
2021,04,01,12,33,9.30
2021,04,01,12,34,9.30
2021,04,01,12,35,9.40
2021,04,01,12,36,9.40
2021,04,01,12,37,9.50
2021,04,01,12,38,9.60
2021,04,01,12,39,9.60
2021,04,01,12,40,9.60
2021,04,01,12,41,9.60
2021,04,01,12,42,9.70
2021,04,01,12,43,9.70
2021,04,01,12,44,9.70
2021,04,01,12,45,9.70
2021,04,01,12,46,9.70
2021,04,01,12,47,9.70
2021,04,01,12,48,9.70
2021,04,01,12,49,9.70
2021,04,01,12,50,9.70
2021,04,01,12,51,9.70
2021,04,01,12,52,9.70
2021,04,01,12,53,9.70
2021,04,01,12,54,9.70
2021,04,01,12,55,9.70
2021,04,01,12,56,9.70
2021,04,01,12,57,9.70
2021,04,01,12,58,9.70
2021,04,01,12,59,9.60
2021,04,01,13,00,9.60
2021,04,01,13,01,9.60
2021,04,01,13,02,9.60
2021,04,01,13,03,9.60
2021,04,01,13,04,9.60
2021,04,01,13,05,9.60
2021,04,01,13,06,9.60
2021,04,01,13,07,9.60
2021,04,01,13,08,9.60
2021,04,01,13,09,9.60
2021,04,01,13,10,9.60
2021,04,01,13,11,9.50
2021,04,01,13,12,9.50
2021,04,01,13,13,9.50
2021,04,01,13,14,9.40
2021,04,01,13,15,9.40
2021,04,01,13,16,9.40
2021,04,01,13,17,9.40
2021,04,01,13,18,9.40
2021,04,01,13,19,9.40
2021,04,01,13,20,9.40
2021,04,01,13,21,9.40
2021,04,01,13,22,9.40
2021,04,01,13,23,9.40
2021,04,01,13,24,9.40
2021,04,01,13,25,9.40
2021,04,01,13,26,9.40
2021,04,01,13,27,9.40
2021,04,01,13,28,9.40
2021,04,01,13,29,9.40
2021,04,01,13,30,9.40
2021,04,01,13,31,9.40
2021,04,01,13,32,9.40
2021,04,01,13,33,9.40
2021,04,01,13,34,9.40
2021,04,01,13,35,9.40
2021,04,01,13,36,9.40
2021,04,01,13,37,9.40
2021,04,01,13,38,9.40
2021,04,01,13,39,9.40
2021,04,01,13,40,9.40
2021,04,01,13,41,9.40
2021,04,01,13,42,9.30
2021,04,01,13,43,9.30
2021,04,01,13,44,9.30
2021,04,01,13,45,9.30
2021,04,01,13,46,9.30
2021,04,01,13,47,9.30
2021,04,01,13,48,9.30
2021,04,01,13,49,9.30
2021,04,01,13,50,9.30
2021,04,01,13,51,9.30
2021,04,01,13,52,9.40
2021,04,01,13,53,9.40
2021,04,01,13,54,9.40
2021,04,01,13,55,9.40
2021,04,01,13,56,9.40
2021,04,01,13,57,9.40
2021,04,01,13,58,9.40
2021,04,01,13,59,9.40
2021,04,01,14,00,9.40
2021,04,01,14,01,9.40
2021,04,01,14,02,9.40
2021,04,01,14,03,9.40
2021,04,01,14,04,9.40
2021,04,01,14,05,9.40
2021,04,01,14,06,9.40
2021,04,01,14,07,9.40
2021,04,01,14,08,9.40
2021,04,01,14,09,9.40
2021,04,01,14,10,9.40
2021,04,01,14,11,9.40
2021,04,01,14,12,9.40
2021,04,01,14,13,9.40
2021,04,01,14,14,9.40
2021,04,01,14,15,9.40
2021,04,01,14,16,9.30
2021,04,01,14,17,9.30
2021,04,01,14,18,9.30
2021,04,01,14,19,9.30
2021,04,01,14,20,9.40
2021,04,01,14,21,9.40
2021,04,01,14,22,9.40
2021,04,01,14,23,9.40
2021,04,01,14,24,9.40
2021,04,01,14,25,9.40
2021,04,01,14,26,9.40
2021,04,01,14,27,9.50
2021,04,01,14,28,9.50
2021,04,01,14,29,9.50
2021,04,01,14,30,9.50
2021,04,01,14,31,9.50
2021,04,01,14,32,9.50
2021,04,01,14,33,9.60
2021,04,01,14,34,9.60
2021,04,01,14,35,9.60
2021,04,01,14,36,9.60
2021,04,01,14,37,9.60
2021,04,01,14,38,9.70
2021,04,01,14,39,9.70
2021,04,01,14,40,9.70
2021,04,01,14,41,9.70
2021,04,01,14,42,9.80
2021,04,01,14,43,9.80
2021,04,01,14,44,9.80
2021,04,01,14,45,9.80
2021,04,01,14,46,9.80
2021,04,01,14,47,9.80
2021,04,01,14,48,9.80
2021,04,01,14,49,9.90
2021,04,01,14,50,9.90
2021,04,01,14,51,9.90
2021,04,01,14,52,9.90
2021,04,01,14,53,10.00
2021,04,01,14,54,10.00
2021,04,01,14,55,10.00
2021,04,01,14,56,10.10
2021,04,01,14,57,10.10
2021,04,01,14,58,10.10
2021,04,01,14,59,10.20
2021,04,01,15,00,10.20
2021,04,01,15,01,10.20
2021,04,01,15,02,10.30
2021,04,01,15,03,10.30
2021,04,01,15,04,10.30
2021,04,01,15,05,10.30
2021,04,01,15,06,10.30
2021,04,01,15,07,10.30
2021,04,01,15,08,10.40
2021,04,01,15,09,10.40
2021,04,01,15,10,10.40
2021,04,01,15,11,10.40
2021,04,01,15,12,10.40
2021,04,01,15,13,10.40
2021,04,01,15,14,10.50
2021,04,01,15,15,10.50
2021,04,01,15,16,10.60
2021,04,01,15,17,10.60
2021,04,01,15,18,10.60
2021,04,01,15,19,10.60
2021,04,01,15,20,10.70
2021,04,01,15,21,10.80
2021,04,01,15,22,10.80
2021,04,01,15,23,10.90
2021,04,01,15,24,11.00
2021,04,01,15,25,11.00
2021,04,01,15,26,11.10
2021,04,01,15,27,11.10
2021,04,01,15,28,11.20
2021,04,01,15,29,11.30
2021,04,01,15,30,11.30
2021,04,01,15,31,11.40
2021,04,01,15,32,11.60
2021,04,01,15,33,11.70
2021,04,01,15,34,11.70
2021,04,01,15,35,11.70
2021,04,01,15,36,11.80
2021,04,01,15,37,11.70
2021,04,01,15,38,11.70
2021,04,01,15,39,11.70
2021,04,01,15,40,11.70
2021,04,01,15,41,11.60
2021,04,01,15,42,11.60
2021,04,01,15,43,11.60
2021,04,01,15,44,11.60
2021,04,01,15,45,11.50
2021,04,01,15,46,11.50
2021,04,01,15,47,11.40
2021,04,01,15,48,11.40
2021,04,01,15,49,11.30
2021,04,01,15,50,11.30
2021,04,01,15,51,11.30
2021,04,01,15,52,11.30
2021,04,01,15,53,11.30
2021,04,01,15,54,11.30
2021,04,01,15,55,11.30
2021,04,01,15,56,11.30
2021,04,01,15,57,11.40
2021,04,01,15,58,11.50
2021,04,01,15,59,11.60
2021,04,01,16,00,11.60
2021,04,01,16,01,11.70
2021,04,01,16,02,11.80
2021,04,01,16,03,11.90
2021,04,01,16,04,12.00
2021,04,01,16,05,12.00
2021,04,01,16,06,12.10
2021,04,01,16,07,12.10
2021,04,01,16,08,12.20
2021,04,01,16,09,12.20
2021,04,01,16,10,12.20
2021,04,01,16,11,12.20
2021,04,01,16,12,12.20
2021,04,01,16,13,12.20
2021,04,01,16,14,12.20
2021,04,01,16,15,12.20
2021,04,01,16,16,12.30
2021,04,01,16,17,12.30
2021,04,01,16,18,12.30
2021,04,01,16,19,12.20
2021,04,01,16,20,12.10
2021,04,01,16,21,12.10
2021,04,01,16,22,12.10
2021,04,01,16,23,12.00
2021,04,01,16,24,12.00
2021,04,01,16,25,12.00
2021,04,01,16,26,11.90
2021,04,01,16,27,11.90
2021,04,01,16,28,11.90
2021,04,01,16,29,11.90
2021,04,01,16,30,11.90
2021,04,01,16,31,11.90
2021,04,01,16,32,12.00
2021,04,01,16,33,12.00
2021,04,01,16,34,12.00
2021,04,01,16,35,12.00
2021,04,01,16,36,12.00
2021,04,01,16,37,12.00
2021,04,01,16,38,12.00
2021,04,01,16,39,12.10
2021,04,01,16,40,12.10
2021,04,01,16,41,12.20
2021,04,01,16,42,12.20
2021,04,01,16,43,12.20
2021,04,01,16,44,12.20
2021,04,01,16,45,12.20
2021,04,01,16,46,12.20
2021,04,01,16,47,12.20
2021,04,01,16,48,12.20
2021,04,01,16,49,12.10
2021,04,01,16,50,12.10
2021,04,01,16,51,12.00
2021,04,01,16,52,12.00
2021,04,01,16,53,11.90
2021,04,01,16,54,11.90
2021,04,01,16,55,11.80
2021,04,01,16,56,11.80
2021,04,01,16,57,11.80
2021,04,01,16,58,11.80
2021,04,01,16,59,11.80
2021,04,01,17,00,11.80
2021,04,01,17,01,11.80
2021,04,01,17,02,11.80
2021,04,01,17,03,11.80
2021,04,01,17,04,11.80
2021,04,01,17,05,11.80
2021,04,01,17,06,11.80
2021,04,01,17,07,11.80
2021,04,01,17,08,11.80
2021,04,01,17,09,11.80
2021,04,01,17,10,11.90
2021,04,01,17,11,11.90
2021,04,01,17,12,11.90
2021,04,01,17,13,11.90
2021,04,01,17,14,11.90
2021,04,01,17,15,11.90
2021,04,01,17,16,11.90
2021,04,01,17,17,11.90
2021,04,01,17,18,11.90
2021,04,01,17,19,11.80
2021,04,01,17,20,11.80
2021,04,01,17,21,11.80
2021,04,01,17,22,11.80
2021,04,01,17,23,11.90
2021,04,01,17,24,11.90
2021,04,01,17,25,11.90
2021,04,01,17,26,11.90
2021,04,01,17,27,11.90
2021,04,01,17,28,11.90
2021,04,01,17,29,11.90
2021,04,01,17,30,11.90
2021,04,01,17,31,11.90
2021,04,01,17,32,11.90
2021,04,01,17,33,11.80
2021,04,01,17,34,11.80
2021,04,01,17,35,11.80
2021,04,01,17,36,11.70
2021,04,01,17,37,11.70
2021,04,01,17,38,11.60
2021,04,01,17,39,11.60
2021,04,01,17,40,11.50
2021,04,01,17,41,11.50
2021,04,01,17,42,11.50
2021,04,01,17,43,11.40
2021,04,01,17,44,11.40
2021,04,01,17,45,11.40
2021,04,01,17,46,11.40
2021,04,01,17,47,11.40
2021,04,01,17,48,11.40
2021,04,01,17,49,11.40
2021,04,01,17,50,11.40
2021,04,01,17,51,11.40
2021,04,01,17,52,11.40
2021,04,01,17,53,11.30
2021,04,01,17,54,11.30
2021,04,01,17,55,11.30
2021,04,01,17,56,11.30
2021,04,01,17,57,11.30
2021,04,01,17,58,11.30